Location: Stull Observatory
(42.2506°N, 77.7903°W)
Time: 00:41:11
(UTC-05:00)

ISS - All Passes

Search period start: 19 January 2018 00:00
Search period end: 29 January 2018 00:00
Orbit: 402 x 407 km, 51.6° (Epoch: 19 January)

Date Brightness Start Highest point End Pass type
(mag) Time Alt. Az. Time Alt. Az. Time Alt. Az.
19 Jan - 00:27:40 10° NW 00:29:52 17° N 00:32:05 10° NE night (unlit)
19 Jan - 02:04:45 10° NW 02:07:15 20° NNE 02:09:45 10° ENE night (unlit)
19 Jan - 03:40:53 10° NW 03:44:10 71° NNE 03:47:26 10° ESE night (unlit)
19 Jan - 05:18:27 10° W 05:20:16 14° SW 05:22:05 10° SSW visible
19 Jan - 20:22:13 10° S 20:24:15 15° SE 20:26:16 10° E night (unlit)
19 Jan - 21:57:08 10° WSW 22:00:23 64° NNW 22:03:38 10° NE night (unlit)
19 Jan - 23:34:54 10° WNW 23:37:20 19° NNW 23:39:47 10° NE night (unlit)
20 Jan - 01:12:28 10° NW 01:14:43 17° N 01:16:57 10° NE night (unlit)
20 Jan - 02:48:41 10° NW 02:51:50 41° NNE 02:54:57 10° E night (unlit)
20 Jan - 04:25:24 10° WNW 04:28:11 26° SW 04:30:58 10° SSE night (unlit)
20 Jan - 21:04:51 10° SW 21:08:05 70° SE 21:11:20 10° ENE night (unlit)
20 Jan - 22:42:05 10° WNW 22:44:49 24° NNW 22:47:33 10° NE night (unlit)
21 Jan - 00:20:02 10° NW 00:22:08 16° N 00:24:15 10° NE night (unlit)
21 Jan - 01:56:31 10° NW 01:59:24 28° NNE 02:02:18 10° E night (unlit)
21 Jan - 03:32:50 10° WNW 03:36:00 49° SW 03:39:11 10° SE night (unlit)
21 Jan - 20:12:51 10° SSW 20:15:52 35° SE 20:18:53 10° ENE night (unlit)
21 Jan - 21:49:21 10° W 21:52:21 33° NNW 21:55:22 10° NE night (unlit)
21 Jan - 23:27:24 10° NW 23:29:33 16° N 23:31:42 10° NE night (unlit)
22 Jan - 01:04:18 10° NW 01:06:54 21° NNE 01:09:30 10° ENE night (unlit)
22 Jan - 02:40:27 10° NW 02:43:45 87° NE 02:47:01 10° SE night (unlit)
22 Jan - 04:18:42 10° WSW 04:19:44 11° SW 04:20:48 10° SSW night (unlit)
22 Jan - 19:21:18 10° S 19:23:42 19° SE 19:26:07 10° E visible
22 Jan - 20:56:44 10° WSW 20:59:56 52° NNW 21:03:09 10° NE night (unlit)
22 Jan - 22:34:37 10° WNW 22:36:57 18° N 22:39:18 10° NE night (unlit)
23 Jan - 00:12:01 10° NW 00:14:20 18° N 00:16:39 10° NE night (unlit)
23 Jan - 01:48:11 10° NW 01:51:23 49° NNE 01:54:35 10° ESE night (unlit)
23 Jan - 03:25:06 10° W 03:27:39 21° SW 03:30:11 10° S night (unlit)
23 Jan - 18:31:18 10° SE 18:31:37 10° SE 18:31:56 10° ESE visible
23 Jan - 20:04:19 10° SW 20:07:34 87° SSE 20:10:52 10° ENE visible
23 Jan - 21:41:46 10° WNW 21:44:24 22° NNW 21:47:01 10° NE night (unlit)
23 Jan - 23:19:36 10° NW 23:21:44 16° N 23:23:52 10° NE night (unlit)
24 Jan - 00:55:57 10° NW 00:58:57 31° NNE 01:01:55 10° E night (unlit)
24 Jan - 02:32:23 10° WNW 02:35:28 39° SW 02:38:32 10° SSE night (unlit)
24 Jan - 19:12:11 10° SSW 19:15:17 45° SE 19:18:26 10° ENE visible
24 Jan - 20:48:57 10° W 20:51:51 29° NNW 20:54:47 10° NE night (unlit)
24 Jan - 22:27:00 10° NW 22:29:06 16° N 22:31:13 10° NE night (unlit)
25 Jan - 00:03:44 10° NW 00:06:26 23° NNE 00:09:07 10° ENE night (unlit)
25 Jan - 01:39:55 10° WNW 01:43:11 76° SW 01:46:26 10° SE night (unlit)
25 Jan - 18:20:24 10° S 18:23:04 24° SE 18:25:45 10° E visible
25 Jan - 19:56:14 10° WSW 19:59:24 44° NNW 20:02:32 10° NE visible
25 Jan - 21:34:13 10° NW 21:36:28 17° N 21:38:44 10° NE night (unlit)
25 Jan - 23:11:27 10° NW 23:13:50 19° NNE 23:16:15 10° ENE night (unlit)
26 Jan - 00:47:35 10° NW 00:50:50 59° NNE 00:54:03 10° ESE night (unlit)
26 Jan - 02:24:47 10° W 02:27:00 17° SW 02:29:12 10° S night (unlit)
26 Jan - 17:29:23 10° SSE 17:30:55 13° SE 17:32:27 10° ESE daylight
26 Jan - 19:03:43 10° WSW 19:06:58 77° NNW 19:10:14 10° NE visible
26 Jan - 20:41:20 10° WNW 20:43:51 20° NNW 20:46:23 10° NE visible
26 Jan - 22:19:02 10° NW 22:21:13 16° N 22:23:23 10° NE night (unlit)
26 Jan - 23:55:18 10° NW 23:58:22 36° NNE 00:01:26 10° E night (unlit)
27 Jan - 01:31:51 10° WNW 01:34:48 31° SW 01:37:44 10° SSE night (unlit)
27 Jan - 18:11:25 10° SW 18:14:37 56° SE 18:17:50 10° ENE visible
27 Jan - 19:48:27 10° W 19:51:16 26° NNW 19:54:05 10° NE visible
27 Jan - 21:26:27 10° NW 21:28:33 16° N 21:30:38 10° NE night (unlit)
27 Jan - 23:03:02 10° NW 23:05:50 25° NNE 23:08:38 10° ENE night (unlit)
28 Jan - 00:39:17 10° WNW 00:42:31 61° SW 00:45:44 10° SE night (unlit)
28 Jan - 17:19:28 10° SSW 17:22:20 29° SE 17:25:13 10° ENE daylight
28 Jan - 18:55:39 10° W 18:58:44 37° NNW 19:01:49 10° NE visible
28 Jan - 20:33:41 10° NW 20:35:52 16° N 20:38:04 10° NE visible
28 Jan - 22:10:44 10° NW 22:13:14 20° NNE 22:15:44 10° ENE night (unlit)
28 Jan - 23:46:52 10° NW 23:50:08 72° NNE 23:53:23 10° ESE night (unlit)
